Location: Gniazdowice
(50.2124°N, 20.2673°E)
Time: 23:10:36
(UTC+00:00)

Meteor 1-28 Rocket - Pass Details

Date: 13 August 2024
Orbit: 468 x 483 km, 97.5° (Epoch: 08 September)

Event Time Altitude Azimuth Distance (km) Brightness Sun altitude
Exits shadow 01:24:45 27° 178° (S) 972 4.2 -16.2°
Maximum altitude 01:26:37 72° 258° (WSW) 517 3.0 -16.1°
Drops below altitude 10° 01:30:13 10° 343° (NNW) 1,677 6.2 -15.7°
Sets 01:32:17 0° 345° (NNW) 2,559 7.2 -15.4°
